Location: Brachstadt
(48.6975°N, 10.6755°E)
Time: 08:33:50
(UTC+00:00)

KORONAS-FOTON - Pass Details

Date: 18 September 2020
Orbit: 506 x 532 km, 82.4° (Epoch: 24 October)

Event Time Altitude Azimuth Distance (km) Brightness Sun altitude
Rises 19:20:08 0° 350° (N) 2,688 8.0 -19.4°
Reaches altitude 10° 19:22:18 10° 352° (N) 1,794 7.0 -19.8°
Maximum altitude 19:26:15 83° 81° (E) 544 3.7 -20.3°
Enters shadow 19:26:57 59° 158° (SSE) 621 3.9 -20.4°
